Regional Weather Roundup
Issued by NWS

Home | Current Version | Previous Version | Graphics & Text | Print | Product List | Glossary On
Versions: 1 2 3 4 5 6 7 8 9 10 11 12 13 14 15 16 17 18 19 20 21 22 23 24 25 26 27 28 29 30 31 32 33 34 35 36 37 38 39 40 41 42 43 44 45 46 47 48 49 50
000
ASUS44 KMEG 062310
RWRTN
TENNESSEE HOURLY STATE WEATHER ROUNDUP
NATIONAL WEATHER SERVICE MEMPHIS TN
500 PM CST SAT FEB 06 2016

TNZ002-004-019-021-049-052-054-088>092-070000-
WEST TENNESSEE

CITY           SKY/WX    TMP DP  RH WIND       PRES   REMARKS
MEMPHIS INTL   PTCLDY    53  21  28 CALM      30.30F
NWS MEMPHIS      N/A     53 N/A N/A MISG        N/A
JACKSON        CLEAR     50  22  33 SW5       30.29F
DYERSBURG      CLEAR     52  21  30 W5        30.31S
UNION CITY     CLEAR     50  25  37 SW5       30.28S
PARIS          CLEAR     48  21  34 CALM      30.29S
LEXINGTON      CLEAR     48  18  29 SW5       30.28F
$$

TNZ008-025-027-028-033-062-065-066-070000-
NORTH MIDDLE TENNESSEE

CITY           SKY/WX    TMP DP  RH WIND       PRES   REMARKS
NASHVILLE      MOCLDY    50  16  25 CALM      30.29F
CLARKSVILLE    CLEAR     50  20  30 SW3       30.27F
SMYRNA         CLOUDY    48  23  37 N3        30.30F
COOKEVILLE     CLEAR     43  28  56 CALM      30.27F
CROSSVILLE     CLOUDY    42  17  36 S3        30.27F
$$

TNZ061-075-076-078-094-096-097-070000-
SOUTH MIDDLE TENNESSEE

CITY           SKY/WX    TMP DP  RH WIND       PRES   REMARKS
FAYETTEVILLE   CLEAR     46  19  34 N3        30.28F
TULLAHOMA      CLEAR     45  14  29 CALM      30.29S
WINCHESTER     PTCLDY    45  21  39 CALM      30.29S
MCMINNVILLE    CLEAR     45  19  36 CALM      30.28F
COLUMBIA       CLEAR     48  25  40 CALM      30.27S
SHELBYVILLE    CLEAR     48  21  34 CALM      30.30S
$$

TNZ017-018-042-046-047-070000-
NORTHEAST TENNESSEE

CITY           SKY/WX    TMP DP  RH WIND       PRES   REMARKS
TRI CITIES     CLOUDY    40  19  43 S5        30.28S
$$

TNZ012-013-036-069-073-074-070000-
CENTRAL EAST TENNESSEE

CITY           SKY/WX    TMP DP  RH WIND       PRES   REMARKS
KNOXVILLE      CLOUDY    44  20  38 N7        30.28F
OAK RIDGE      CLOUDY    45  20  36 CALM      30.30F
GATLINBURG       N/A     43  16  33 CALM      30.28F
MORRISTOWN     CLOUDY    43  18  36 CALM      30.27F
$$

TNZ083-085-099-070000-
SOUTHEAST TENNESSEE

CITY           SKY/WX    TMP DP  RH WIND       PRES   REMARKS
CHATTANOOGA    MOCLDY    47  16  29 N10       30.28F
$$

SKY/WX REPORTED AS FAIR MEANS FEW OR NO CLOUDS BELOW
12 THOUSAND FEET.




USA.gov is the U.S. government's official web portal to all federal, state and local government web resources and services.